Overview Statistics Trail Chart Weather Telemetry Raw packets
 

This is the latest recevied weather packets stored in our database for station/object MMMX. If no packets are shown the sender has not sent any weather packets the latest 10 day(s).

<< 2 3 4 5 6 7 8 >>
Time Temp. Humidity Pressure Rain* Wind** Luminosity Snow
1788545621 22.78° C 38% 1027.1 hPa - - - -
1788545021 22.78° C 38% 1027.1 hPa - - - -
1788544425 22.78° C 46% 1027.4 hPa - - - -
1788543821 22.78° C 46% 1027.4 hPa - - - -
1788543223 20.56° C 52% 1027.8 hPa - - - -
1788542620 20.56° C 52% 1027.8 hPa - - - -
1788542021 20.56° C 52% 1027.8 hPa - - - -
1788541418 20.56° C 52% 1027.8 hPa - - - -
1788540820 20° C 56% 1028.1 hPa - - - -
1788540223 20° C 56% 1028.1 hPa - - - -
1788539619 20° C 56% 1028.1 hPa - - - -
1788539019 20° C 56% 1028.1 hPa - - - -
1788538419 20° C 56% 1028.1 hPa - - - -
1788537819 20° C 56% 1028.1 hPa - - - -
1788537220 17.78° C 67% 1028.1 hPa - - - -
1788536618 17.78° C 67% 1028.1 hPa - - - -
1788536021 17.78° C 67% 1028.1 hPa - - - -
1788535422 17.78° C 67% 1028.1 hPa - - - -
1788534819 17.78° C 67% 1028.1 hPa - - - -
1788534218 17.78° C 67% 1028.1 hPa - - - -
1788533621 17.78° C 67% 1028.1 hPa - - - -
1788533020 17.78° C 67% 1028.1 hPa - - - -
1788532420 15.56° C 77% 1028.1 hPa - - - -
1788531819 15.56° C 77% 1028.1 hPa - - - -
1788531221 13.89° C 82% 1027.8 hPa - - - -

* Rain since midnight (hover to see other rain measurements)
** Current wind speed in m/s (hover to see current wind gust speed)